Location: Goettingen
(51.5300°N, 9.9433°E)
Time: 11:26:42
(UTC+02:00)

ISS - Pass Details

Date: 17 May 2019
Orbit: 407 x 410 km, 51.6° (Epoch: 21 May)

Event Time Altitude Azimuth Distance (km) Brightness Sun altitude
Exits shadow 02:12:39 18° 273° (W) 1,074 -1.8 -18.2°
Maximum altitude 02:14:58 86° 0° (N) 416 -3.9 -18.1°
Drops below altitude 10° 02:18:17 10° 91° (E) 1,476 -0.8 -18.0°
Sets 02:20:22 0° 92° (E) 2,338 0.2 -17.9°
